When you browse on this site, cookies collect data to enhance your experience and personalize the content and advertising you see.
Visit our Privacy Policy to learn more. By continuing to use the site, you agree to this use of cookies and data.
  • In Schweiz
  • Länderverzeichnis
  • Für 7 Tage
  • Wassertemperatur
  • Satellitenkarten
  • Wetterkarte
  • Widgets
  • user-avatar
    Anmelden

    Stündliche Wetter Tovste

    Heute, 17 Juli, Mittwoch

    Zeit Temperatur Niederschläge Wind Luftdruck Luftfeuchtigkeit
    00:00 +16°C° 0 mm 2 m/S 747 mmHg 85%
    01:00 +16°C° 0 mm 2 m/S 747 mmHg 86%
    02:00 +15°C° 0 mm 2 m/S 747 mmHg 86%
    03:00 +15°C° 0 mm 2 m/S 747 mmHg 86%
    04:00 +15°C° 0 mm 2 m/S 747 mmHg 86%
    05:00 +15°C° 0 mm 2 m/S 747 mmHg 86%
    06:00 +17°C° 0 mm 2 m/S 747 mmHg 80%
    07:00 +19°C° 0 mm 3 m/S 747 mmHg 74%
    08:00 +21°C° 0 mm 3 m/S 747 mmHg 68%
    09:00 +22°C° 0.3 mm 4 m/S 747 mmHg 64%
    10:00 +23°C° 0.3 mm 4 m/S 747 mmHg 60%
    11:00 +25°C° 0.3 mm 5 m/S 747 mmHg 56%
    12:00 +25°C° 0.3 mm 5 m/S 747 mmHg 55%
    13:00 +25°C° 0.3 mm 4 m/S 747 mmHg 54%
    14:00 +25°C° 0.3 mm 4 m/S 747 mmHg 53%
    15:00 +23°C° 0 mm 4 m/S 747 mmHg 54%
    16:00 +23°C° 0 mm 4 m/S 747 mmHg 54%
    17:00 +23°C° 0 mm 4 m/S 747 mmHg 54%
    18:00 +21°C° 0 mm 3 m/S 747 mmHg 60%
    19:00 +20°C° 0 mm 3 m/S 747 mmHg 65%
    20:00 +18°C° 0 mm 2 m/S 747 mmHg 71%
    21:00 +17°C° 0.1 mm 2 m/S 747 mmHg 74%
    22:00 +17°C° 0.1 mm 2 m/S 747 mmHg 77%
    23:00 +16°C° 0.1 mm 2 m/S 747 mmHg 81%

    Morgen, 18 Juli, Donnerstag

    Zeit Temperatur Niederschläge Wind Luftdruck Luftfeuchtigkeit
    00:00 +16°C° 0.1 mm 2 m/S 747 mmHg 84%
    01:00 +15°C° 0.1 mm 2 m/S 747 mmHg 88%
    02:00 +14°C° 0.1 mm 3 m/S 747 mmHg 92%
    03:00 +13°C° 0 mm 3 m/S 747 mmHg 92%
    04:00 +13°C° 0 mm 3 m/S 747 mmHg 93%
    05:00 +13°C° 0 mm 3 m/S 747 mmHg 93%
    06:00 +14°C° 0 mm 3 m/S 748 mmHg 84%
    07:00 +17°C° 0 mm 3 m/S 748 mmHg 76%
    08:00 +19°C° 0 mm 3 m/S 748 mmHg 67%
    09:00 +20°C° 0 mm 4 m/S 748 mmHg 62%
    10:00 +21°C° 0 mm 4 m/S 748 mmHg 57%
    11:00 +22°C° 0 mm 4 m/S 748 mmHg 51%
    12:00 +23°C° 0 mm 4 m/S 748 mmHg 51%
    13:00 +23°C° 0 mm 4 m/S 748 mmHg 50%
    14:00 +25°C° 0 mm 5 m/S 748 mmHg 49%
    15:00 +25°C° 0 mm 5 m/S 748 mmHg 51%
    16:00 +23°C° 0 mm 4 m/S 749 mmHg 52%
    17:00 +23°C° 0 mm 4 m/S 749 mmHg 53%
    18:00 +22°C° 0 mm 4 m/S 749 mmHg 61%
    19:00 +20°C° 0 mm 3 m/S 749 mmHg 69%
    20:00 +18°C° 0 mm 3 m/S 750 mmHg 76%
    21:00 +17°C° 0 mm 3 m/S 750 mmHg 80%
    22:00 +17°C° 0 mm 3 m/S 750 mmHg 83%
    23:00 +16°C° 0 mm 3 m/S 751 mmHg 86%

    übermorgen, 19 Juli, Freitag

    Zeit Temperatur Niederschläge Wind Luftdruck Luftfeuchtigkeit
    00:00 +16°C° 0 mm 3 m/S 751 mmHg 88%
    01:00 +15°C° 0 mm 2 m/S 751 mmHg 90%
    02:00 +15°C° 0 mm 2 m/S 751 mmHg 92%
    03:00 +15°C° 0 mm 2 m/S 751 mmHg 91%
    04:00 +15°C° 0 mm 2 m/S 751 mmHg 91%
    05:00 +15°C° 0 mm 2 m/S 752 mmHg 91%
    06:00 +17°C° 0 mm 3 m/S 752 mmHg 84%
    07:00 +19°C° 0 mm 3 m/S 752 mmHg 77%
    08:00 +20°C° 0 mm 4 m/S 752 mmHg 70%
    09:00 +22°C° 0 mm 4 m/S 752 mmHg 65%
    10:00 +23°C° 0 mm 4 m/S 752 mmHg 60%
    11:00 +25°C° 0 mm 4 m/S 752 mmHg 56%
    12:00 +26°C° 0 mm 4 m/S 752 mmHg 53%
    13:00 +26°C° 0 mm 4 m/S 752 mmHg 51%
    14:00 +27°C° 0 mm 5 m/S 752 mmHg 48%
    15:00 +27°C° 0 mm 4 m/S 752 mmHg 49%
    16:00 +27°C° 0 mm 4 m/S 752 mmHg 50%
    17:00 +26°C° 0 mm 4 m/S 752 mmHg 50%
    18:00 +24°C° 0 mm 3 m/S 753 mmHg 57%
    19:00 +21°C° 0 mm 2 m/S 753 mmHg 64%
    20:00 +20°C° 0 mm 1 m/S 753 mmHg 71%
    21:00 +20°C° 0 mm 1 m/S 754 mmHg 72%
    22:00 +19°C° 0 mm 1 m/S 754 mmHg 73%
    23:00 +19°C° 0 mm 1 m/S 754 mmHg 74%

    20 Juli, Samstag

    Zeit Temperatur Niederschläge Wind Luftdruck Luftfeuchtigkeit
    00:00 +18°C° 0 mm 1 m/S 754 mmHg 75%
    01:00 +18°C° 0 mm 1 m/S 754 mmHg 77%
    02:00 +18°C° 0 mm 1 m/S 754 mmHg 78%
    03:00 +18°C° 0 mm 1 m/S 754 mmHg 79%
    04:00 +18°C° 0 mm 1 m/S 754 mmHg 80%
    05:00 +18°C° 0 mm 1 m/S 755 mmHg 81%
    06:00 +20°C° 0 mm 1 m/S 755 mmHg 74%
    07:00 +21°C° 0 mm 2 m/S 755 mmHg 67%
    08:00 +24°C° 0 mm 2 m/S 755 mmHg 60%
    09:00 +25°C° 0 mm 2 m/S 755 mmHg 56%
    10:00 +26°C° 0 mm 3 m/S 755 mmHg 52%
    11:00 +27°C° 0 mm 3 m/S 755 mmHg 49%
    12:00 +28°C° 0 mm 3 m/S 755 mmHg 48%
    13:00 +28°C° 0 mm 3 m/S 755 mmHg 47%
    14:00 +29°C° 0 mm 3 m/S 755 mmHg 46%
    15:00 +28°C° 0.1 mm 2 m/S 755 mmHg 48%
    16:00 +28°C° 0.1 mm 2 m/S 755 mmHg 49%
    17:00 +28°C° 0.1 mm 1 m/S 755 mmHg 51%
    18:00 +26°C° 0.2 mm 1 m/S 755 mmHg 57%
    19:00 +24°C° 0.2 mm 1 m/S 755 mmHg 64%
    20:00 +22°C° 0.2 mm 1 m/S 755 mmHg 70%
    21:00 +22°C° 0.5 mm 1 m/S 755 mmHg 74%
    22:00 +21°C° 0.5 mm 1 m/S 755 mmHg 78%
    23:00 +20°C° 0.5 mm 1 m/S 755 mmHg 81%

    21 Juli, Sonntag

    Zeit Temperatur Niederschläge Wind Luftdruck Luftfeuchtigkeit
    00:00 +20°C° 0.7 mm 1 m/S 755 mmHg 83%
    01:00 +19°C° 0.7 mm 1 m/S 755 mmHg 84%
    02:00 +17°C° 0.7 mm 0 m/S 755 mmHg 85%
    03:00 +17°C° 0.3 mm 0 m/S 755 mmHg 85%
    04:00 +19°C° 0.3 mm 1 m/S 755 mmHg 85%
    05:00 +19°C° 0.3 mm 1 m/S 755 mmHg 85%
    06:00 +21°C° 0 mm 1 m/S 755 mmHg 81%
    07:00 +22°C° 0 mm 1 m/S 755 mmHg 76%
    08:00 +24°C° 0 mm 1 m/S 755 mmHg 71%
    09:00 +25°C° 0 mm 2 m/S 755 mmHg 66%
    10:00 +27°C° 0 mm 2 m/S 755 mmHg 61%
    11:00 +28°C° 0 mm 2 m/S 755 mmHg 56%
    12:00 +29°C° 0 mm 2 m/S 755 mmHg 53%
    13:00 +29°C° 0 mm 2 m/S 755 mmHg 50%
    14:00 +30°C° 0 mm 2 m/S 755 mmHg 47%
    15:00 +30°C° 0 mm 2 m/S 755 mmHg 47%
    16:00 +30°C° 0 mm 2 m/S 755 mmHg 48%
    17:00 +30°C° 0 mm 2 m/S 755 mmHg 49%
    18:00 +28°C° 0 mm 2 m/S 755 mmHg 56%
    19:00 +26°C° 0 mm 2 m/S 755 mmHg 64%
    20:00 +24°C° 0 mm 2 m/S 755 mmHg 71%
    21:00 +23°C° 0 mm 2 m/S 755 mmHg 72%
    22:00 +23°C° 0 mm 1 m/S 755 mmHg 74%
    23:00 +22°C° 0 mm 1 m/S 755 mmHg 75%

    22 Juli, Montag

    Zeit Temperatur Niederschläge Wind Luftdruck Luftfeuchtigkeit
    00:00 +22°C° 0 mm 1 m/S 755 mmHg 77%
    01:00 +21°C° 0 mm 1 m/S 755 mmHg 78%
    02:00 +21°C° 0 mm 1 m/S 755 mmHg 79%
    03:00 +21°C° 0 mm 1 m/S 755 mmHg 80%
    04:00 +21°C° 0 mm 1 m/S 755 mmHg 81%
    05:00 +21°C° 0 mm 1 m/S 755 mmHg 82%
    06:00 +23°C° 0 mm 1 m/S 755 mmHg 76%
    07:00 +25°C° 0 mm 2 m/S 755 mmHg 69%
    08:00 +27°C° 0 mm 2 m/S 755 mmHg 63%
    09:00 +28°C° 0.2 mm 2 m/S 755 mmHg 58%
    10:00 +29°C° 0.2 mm 2 m/S 755 mmHg 53%
    11:00 +30°C° 0.2 mm 2 m/S 755 mmHg 49%
    12:00 +30°C° 0.1 mm 2 m/S 755 mmHg 47%
    13:00 +31°C° 0.1 mm 2 m/S 754 mmHg 46%
    14:00 +31°C° 0.1 mm 2 m/S 754 mmHg 44%
    15:00 +31°C° 0.1 mm 2 m/S 754 mmHg 47%
    16:00 +30°C° 0.1 mm 2 m/S 753 mmHg 50%
    17:00 +30°C° 0.1 mm 2 m/S 753 mmHg 53%
    18:00 +28°C° 0.2 mm 2 m/S 753 mmHg 58%
    19:00 +27°C° 0.2 mm 2 m/S 753 mmHg 62%
    20:00 +25°C° 0.2 mm 3 m/S 753 mmHg 67%
    21:00 +24°C° 1.5 mm 3 m/S 753 mmHg 75%
    22:00 +22°C° 1.5 mm 4 m/S 753 mmHg 84%
    23:00 +21°C° 1.5 mm 5 m/S 753 mmHg 93%
    Mehr zeigen